{"data":{"norad_id":60039,"intl_designator":"2024-112B","name":"STARLINK-11140 [DTC]","alt_names":[],"object_type":"PAYLOAD","status":"ACTIVE","operator":null,"country":"US","launch_date":"2024-06-08","launch_site_code":"AFWTR","launch_vehicle":null,"mission":null,"orbit_class":"UNKNOWN","rcs_meters":null,"size_class":null,"mass_kg":null,"dimensions":null,"purposes":["comms"],"wikipedia_slug":null,"has_3d_model":false,"image_url":null,"decayed_at":null,"tle_current":{"epoch":"2026-05-25T00:08:32.919648Z","epoch_age_seconds":78489,"freshness":"FRESH","line1":"1 60039U 24112B   26145.00593657  .00000401  00000+0  81663-5 0  9994","line2":"2 60039  53.1584 250.3278 0001075  88.3968 271.7173 15.69710894112965","mean_motion":15.69710894,"eccentricity":0.0001075,"inclination_deg":53.1584,"raan_deg":250.3278,"arg_perigee_deg":88.3968,"mean_anomaly_deg":271.7173,"bstar":8.1663e-6,"rev_number":11296,"period_min":91.736637969718,"perigee_km":358.99987205705,"apogee_km":360.44851221335,"semimajor_km":6737.8611921352,"source":"CELESTRAK","updated_at":"2026-05-25T13:38:19.152047Z"}}}